Huma, China
Current Conditions -  °F | °C
As of 12:00 AM on Thursday 29 Jan 2015 (Local Time) from UHBB Reporting Station
Clear Clear  
Wind Chill: -10°   Ceiling: Unl
Heat Index:   Visibility: 6mi
Dew Point: -6°   Wind: 4mph
Humidity: 78%   Direction: 230°SW
Pressure: 30.18"   Gusts: NA
Location:  51.72°N, 126.65°E
Report Text: UHBB 281600Z 23002MPS CAVOK M18/M21 Q1022 NOSIG RMK QFE749/099936410260
Loading
Personal Weather Stations






























Interactive Weather Map New forecast layout! Learn more

10-Day Weather Forecast

Advertisements
Track Severe Weather on mobile